Tracking 26492 objects as of 8-Dec-2022
HD Live streaming from Space Station
objects crossing your sky now

STARLINK-4502

Track STARLINK-4502 now!
10-day predictions
STARLINK-4502 is classified as:


NORAD ID: 53557
Int'l Code: 2022-101AG
Perigee: 545.1 km
Apogee: 548.7 km
Inclination: 53.2 °
Period: 95.4 minutes
Semi major axis: 6917 km
RCS: Unknown
Launch date: August 19, 2022
Source: United States (US)
Launch site: AIR FORCE EASTERN TEST RANGE (AFETR)
aabbcc
Your satellite tracking list
Your tracking list is empty




NASA's NSSDC Master Catalog

Two Line Element Set (TLE):
1 53557U 22101AG  22341.77949522 -.00001637  00000-0 -84727-4 0  9999
2 53557  53.2219 356.8543 0002574  38.0305 322.0868 15.08842714 17625
Source of the keplerian elements: AFSPC